Radioactive Concentration measured by Seawater Radiation Monitor near Fukushima Daiichi Nuclear Power Station
Date,Time,Cs137(Bq/L),Cs134(Bq/L),Total β(Bq/L)
2017/02/07,00:00,0.62,0.079,13
2017/02/07,00:10,0.60,0.056,14
2017/02/07,00:20,0.59,0.064,14
2017/02/07,00:30,0.61,0.083,11
2017/02/07,00:40,0.59,0.084,13
2017/02/07,00:50,0.63,0.067,15
2017/02/07,01:00,0.63,0.062,15
2017/02/07,01:10,0.62,0.069,16
2017/02/07,01:20,0.64,0.059,14
2017/02/07,01:30,0.64,0.060,15
2017/02/07,01:40,0.68,0.063,16
2017/02/07,01:50,0.70,0.067,13
2017/02/07,02:00,0.66,0.069,13
2017/02/07,02:10,0.68,0.062,16
2017/02/07,02:20,0.71,0.085,17
2017/02/07,02:30,0.71,0.096,17
2017/02/07,02:40,0.71,0.092,14
2017/02/07,02:50,0.69,0.10,15
2017/02/07,03:00,0.67,0.11,14
2017/02/07,03:10,0.70,0.11,12
2017/02/07,03:20,0.74,0.095,13
2017/02/07,03:30,0.75,0.081,11
2017/02/07,03:40,0.73,0.086,12
2017/02/07,03:50,0.71,0.088,11
2017/02/07,04:00,0.72,0.083,12
2017/02/07,04:10,0.69,0.088,14
2017/02/07,04:20,0.67,0.087,13
2017/02/07,04:30,0.65,0.094,17
2017/02/07,04:40,0.67,0.088,15
2017/02/07,04:50,0.72,0.077,16
2017/02/07,05:00,0.67,0.071,17
2017/02/07,05:10,0.69,0.082,12
2017/02/07,05:20,0.74,0.097,11
2017/02/07,05:30,0.78,0.088,ND
2017/02/07,05:40,0.80,0.079,ND
2017/02/07,05:50,0.76,0.090,ND
2017/02/07,06:00,0.78,0.079,ND
2017/02/07,06:10,0.78,0.068,9.3
2017/02/07,06:20,0.78,0.069,12
2017/02/07,06:30,0.75,0.077,15
2017/02/07,06:40,0.74,0.088,16
2017/02/07,06:50,0.74,0.081,17
2017/02/07,07:00,0.73,0.072,18
2017/02/07,07:10,0.74,0.060,18
2017/02/07,07:20,0.70,0.070,16
2017/02/07,07:30,0.69,0.066,15
2017/02/07,07:40,0.68,0.061,13
2017/02/07,07:50,0.68,0.061,14
2017/02/07,08:00,0.69,0.072,12
2017/02/07,08:10,0.67,0.078,10
2017/02/07,08:20,0.73,0.064,14
2017/02/07,08:30,0.74,0.067,14
2017/02/07,08:40,0.76,0.068,14
2017/02/07,08:50,0.75,0.072,11
2017/02/07,09:00,0.74,0.070,11
2017/02/07,09:10,0.74,0.074,13
2017/02/07,09:20,0.67,0.058,13
2017/02/07,09:30,0.67,0.057,12
2017/02/07,09:40,0.64,0.055,13
2017/02/07,09:50,0.66,0.079,14
2017/02/07,10:00,0.68,0.076,13
2017/02/07,10:10,0.67,0.075,12
2017/02/07,10:20,0.65,0.084,9.6
2017/02/07,10:30,0.65,0.072,10
2017/02/07,10:40,0.64,0.079,10
2017/02/07,10:50,0.68,0.067,9.3
2017/02/07,11:00,0.66,0.053,9.9
2017/02/07,11:10,0.70,0.062,9.0
2017/02/07,11:20,0.73,0.054,10
2017/02/07,11:30,0.68,0.058,10
2017/02/07,11:40,0.67,0.057,12
2017/02/07,11:50,0.66,0.055,10
2017/02/07,12:00,0.68,0.065,10
2017/02/07,12:10,0.64,0.054,12
2017/02/07,12:20,0.64,0.058,10
2017/02/07,12:30,0.68,0.050,10
2017/02/07,12:40,0.76,0.058,8.8
2017/02/07,12:50,0.76,0.066,9.3
2017/02/07,13:00,0.78,0.076,ND
2017/02/07,13:10,0.78,0.076,ND
2017/02/07,13:20,0.79,0.072,ND
2017/02/07,13:30,0.77,0.072,ND
2017/02/07,13:40,0.74,0.075,ND
2017/02/07,13:50,0.78,0.074,ND
2017/02/07,14:00,0.78,0.069,11
2017/02/07,14:10,0.79,0.080,12
2017/02/07,14:20,0.75,0.079,12
2017/02/07,14:30,0.81,0.10,14
2017/02/07,14:40,0.79,0.094,17
2017/02/07,14:50,0.80,0.089,14
2017/02/07,15:00,0.84,0.080,17
2017/02/07,15:10,0.86,0.074,15
2017/02/07,15:20,0.88,0.073,11
2017/02/07,15:30,0.87,0.068,10
2017/02/07,15:40,0.86,0.070,8.8
2017/02/07,15:50,0.84,0.069,9.7
2017/02/07,16:00,0.81,0.080,ND
2017/02/07,16:10,0.82,0.086,ND
2017/02/07,16:20,0.81,0.087,11
2017/02/07,16:30,0.85,0.090,12
2017/02/07,16:40,0.88,0.092,11
2017/02/07,16:50,0.88,0.11,ND
2017/02/07,17:00,0.90,0.11,9.2
2017/02/07,17:10,0.93,0.10,ND
2017/02/07,17:20,0.94,0.095,ND
2017/02/07,17:30,0.94,0.12,ND
2017/02/07,17:40,0.97,0.097,ND
2017/02/07,17:50,0.97,0.092,13
2017/02/07,18:00,0.97,0.090,13
2017/02/07,18:10,0.96,0.11,13
2017/02/07,18:20,0.97,0.11,10
2017/02/07,18:30,0.98,0.11,11
2017/02/07,18:40,0.95,0.12,12
2017/02/07,18:50,0.97,0.13,12
2017/02/07,19:00,0.98,0.12,12
2017/02/07,19:10,0.97,0.12,12
2017/02/07,19:20,0.95,0.12,14
2017/02/07,19:30,0.89,0.097,14
2017/02/07,19:40,0.87,0.097,12
2017/02/07,19:50,0.88,0.098,ND
2017/02/07,20:00,0.82,0.083,ND
2017/02/07,20:10,0.80,0.076,ND
2017/02/07,20:20,0.80,0.064,ND
2017/02/07,20:30,0.78,0.064,ND
2017/02/07,20:40,0.80,0.050,ND
2017/02/07,20:50,0.84,0.061,10
2017/02/07,21:00,0.92,0.070,11
2017/02/07,21:10,0.93,0.083,11
2017/02/07,21:20,0.93,0.093,9.2
2017/02/07,21:30,0.93,0.090,10
2017/02/07,21:40,0.91,0.095,15
2017/02/07,21:50,0.87,0.090,12
2017/02/07,22:00,0.82,0.082,13
2017/02/07,22:10,0.83,0.066,12
2017/02/07,22:20,0.82,0.067,13
2017/02/07,22:30,0.84,0.070,15
2017/02/07,22:40,0.85,0.071,11
2017/02/07,22:50,0.84,0.070,9.6
2017/02/07,23:00,0.84,0.070,9.9
2017/02/07,23:10,0.80,0.084,ND
2017/02/07,23:20,0.79,0.083,10
2017/02/07,23:30,0.77,0.080,8.8
2017/02/07,23:40,0.74,0.088,ND
2017/02/07,23:50,0.73,0.097,11
